Tracking 29892 objects as of 21-Nov-2024
HD Live streaming from Space Station
objects crossing your sky now

FENGYUN 1C DEB

Track FENGYUN 1C DEB now!
10-day predictions


NORAD ID: 29906
Int'l Code: 1999-025HC
Perigee: 733.7 km
Apogee: 795.6 km
Inclination: 98.7 °
Period: 100.0 minutes
Semi major axis: 7135 km
RCS: 0.041 m2 (small)
Launch date: May 10, 1999
Source: People's Republic of China (PRC)
Launch site: Taiyaun Space Center, China (TSC)

Note: This is SATELLITE DEBRIS
Your satellite tracking list
Your tracking list is empty




NASA's NSSDC Master Catalog

Two Line Element Set (TLE):
1 29906U 99025HC  24325.24216688  .00013264  00000-0  41468-2 0  9995
2 29906  98.7091  52.8726 0043364 228.9655 130.7781 14.40293977925604
Source of the keplerian elements: AFSPC